Hourly Data Report for October 24, 2018

MONTREAL INTL A
QUEBEC
Current Station Operator: NAVCAN

45°28'14.000" N
73°44'27.000" W
36.00 m
7025251
71627
YUL

Download Data

Hourly Data (October 2018)
Hourly Data Report for October 24, 2018
TIME
LST
Temp Definition
°C
Dew Point Definition
°C
Rel Hum Definition
%
Precip. Amount Definition
mm

Wind Dir Definition
10's deg

Wind Spd Definition
km/h
Visibility Definition
km
Stn Press Definition
kPa
Hmdx Definition


Wind Chill Definition


Weather Definition


00:00 3.2 0.2 81   1 18 24.1 101.24     Rain
01:00 2.5 0.6 87   1 25 24.1 101.26     Rain
02:00 2.7 0.7 86   1 22 24.1 101.29     Rain
03:00 2.3 0.7 89   2 23 24.1 101.31     Rain
04:00 2.1 0.6 90   1 26 24.1 101.34     Rain
05:00 2.0 0.4 89   1 25 24.1 101.37     Rain
06:00 1.8 0.6 92   35 21 16.1 101.44     Rain
07:00 2.0 0.8 92   36 15 24.1 101.52     Rain
08:00 2.2 1.0 92   35 16 24.1 101.56     Rain
09:00 2.9 1.4 90   36 12 24.1 101.64     Drizzle
10:00 3.7 1.7 87   1 15 24.1 101.66     Rain
11:00 4.4 1.4 81   36 12 24.1 101.66     Rain
12:00 5.3 0.1 69   2 6 24.1 101.64     LegendNANA
13:00 6.6 0.4 65   36 3 24.1 101.62     Mainly Clear
14:00 7.0 1.2 67   20 14 24.1 101.57     LegendNANA
15:00 7.0 1.0 66   23 16 48.3 101.54     LegendNANA
16:00 6.0 1.4 72   23 11 24.1 101.50     Mainly Clear
17:00 6.7 1.9 71   21 10 24.1 101.48     LegendNANA
18:00 6.0 2.5 78   23 7 24.1 101.46     LegendNANA
19:00 6.5 0.2 64   30 20 24.1 101.50     Mostly Cloudy
20:00 6.1 0.2 66   31 18 24.1 101.53     Rain Showers
21:00 5.6 0.1 68   32 15 24.1 101.56     LegendNANA
22:00 5.2 -1.2 63   33 19 24.1 101.59     Cloudy
23:00 4.5 -0.4 70   32 21 24.1 101.59     Rain Showers

Notes on Data Quality.

Legend

  • E = Estimated
  • M = Missing
  • NA = Not Available*
  • [empty] = Indicates an unobserved value
Date modified: